Regional Weather Roundup
Issued by NWS Pendleton, OR

Home | Current Version | Previous Version | Text Only | Print | Product List | Glossary On
Versions: 1 2 3 4 5 6 7 8 9 10 11 12 13 14 15 16 17 18 19 20 21 22 23 24 25 26 27 28 29 30 31 32 33 34 35 36 37 38 39 40 41 42 43 44 45 46 47 48 49 50
000
ASUS46 KPDT 030025
RWRPDT
PENDLETON REGIONAL WEATHER ROUNDUP
NATIONAL WEATHER SERVICE PENDLETON OREGON
500 PM PDT TUE SEP 2 2014

NOTE: FAIR INDICATES FEW OR NO CLOUDS BELOW 12,000 FEET WITH NO
SIGNIFICANT WEATHER AND/OR OBSTRUCTIONS TO VISIBILITY.

# INDICATES UNOFFICIAL STATION AND DATA

WAZ520-030110-
EAST SLOPES OF WASHINGTON CASCADES

CITY            SKY/WX      TMP DP  RH  WIND    PRES   REMARKS
#CLE ELUM HS    N/A         61  47  60  NW8     29.78
#CLE ELUM 2NW   N/A         58  47  67  NW3     N/A
#CLE ELUM LAKE  N/A         54  49  83  CALM    29.72S
#CLIFFDEL 2NW   N/A         59  46  62  N6      N/A
#GLENWOOD       N/A         66  51  58  S7      29.78
#MANASTASH CYN  N/A         64  46  52  CALM    29.78S
#NELSON         N/A         60  51  72  CALM    29.75S
#NELSON 3SW     N/A         56  50  80  CALM    29.92
#NILE           N/A         70  48  46  W5      28.99
#RONALD 2NW     N/A         58  48  69  SW1     29.68R
#TEANAWAY 4NE   N/A         64  50  60  CALM    N/A
#TROUT LAKE 1NE N/A         65  49  56  NW7     29.80
$$

WAZ521-030110-
SIMCOE HIGHLANDS

CITY            SKY/WX      TMP DP  RH  WIND    PRES   REMARKS
#BICKLETON HS   N/A         69  38  32  W13     29.85S
#CENTERVILLE 4W N/A         67  48  50  W22     29.58R
#CENTERVILLE 1SWN/A         67  48  50  W30     29.72
#GOLDENDALE     N/A         71  46  41  W18G29  N/A
#GOLDENDALE 1NE N/A         69  39  33  SW8     N/A
#GOLDENDALE 1S  N/A         70  49  47  W12     29.80
#GOLDENDALE 5WNWN/A         68  49  51  SW25    29.74R
#GOODNOE HILLS  N/A         73  50  44  W26G36  29.73S
#LYLE 6NE       N/A         68  51  55  W16G26  29.76
$$

WAZ026-030110-
KITTITAS VALLEY

CITY            SKY/WX      TMP DP  RH  WIND    PRES   REMARKS
ELLENSBURG AP   PTCLDY      71  47  42  NW25G38 29.76
6HR MIN TEMP:   71; 6HR MAX TEMP:   77;

#ELLENSBURG CWU N/A         70  47  44  NW23    29.65
#ELLENSBURG 3NE N/A         68  50  53  W14G29  29.76
#ELLENSBURG     N/A         69  50  51  NW13    N/A
#ELLENSBURG 1E  N/A         68  45  44  NW3     N/A
#KITTITAS 3S    N/A         68  49  51  NW16G25 29.66S
#THORP 6N       N/A         61  47  60  N16G31  29.74
$$

WAZ027-030110-
YAKIMA VALLEY

CITY            SKY/WX      TMP DP  RH  WIND    PRES   REMARKS
YAKIMA AIRPORT  SUNNY       78  44  30  W24G31  29.71
6HR MIN TEMP:   72; 6HR MAX TEMP:   83;

#COWICHE 1N     N/A         71  46  41  W12     29.92R
#DONALD 2NE     N/A         84  35  17  E1      30.03S
#GRANDVIEW      N/A         78  45  31  CALM    29.67
#MABTON         N/A         81  51  35  N2      29.67
#MOXEE 2E       N/A         77  27  16  W10     29.64S
#TERRACE HTS    N/A         80  45  29  N12     29.64
#TOPPENISH      N/A         80  50  35  SW1     29.58
#WAPATO 4NE     N/A         84  35  17  E1      30.03S
#WEST VALLEY    N/A         76  45  33  N7      29.65
#W YAKIMA       N/A         76  47  36  W6      29.67R
#WHITE SWAN 5E  N/A         80  47  31  W22G31  29.68
#WILEY CITY 3W  N/A         76  40  27  CALM    29.71
$$

WAZ028-030110-
LOWER COLUMBIA BASIN...WASHINGTON

CITY            SKY/WX      TMP DP  RH  WIND    PRES   REMARKS
PASCO           SUNNY       85  46  26  SW9     29.67
6HR MIN TEMP:   72; 6HR MAX TEMP:   85;

PROSSER AWOS    N/A         82  46  28  NW2     29.70
#BASIN CITY 5SW N/A         83  47  28  SW6     29.66
#BENTON CITY    N/A         81  47  30  W3      29.56
#CONNELL 5N     N/A         80  47  31  SW9     29.64
#CONNELL 5NW    N/A         80  47  31  SW7     29.63
#ELTOPIA        N/A         85  53  33  SW7     29.61S
#ELTOPIA 6NW    N/A         80  51  36  W2      28.66
#KENNEWICK 3S   N/A         82  49  32  W1      29.66
#PATERSON       N/A         81  49  33  W22G29  29.64
#PROSSER        N/A         83  42  24  N2      29.65
#SAGEMOOR 2W    N/A         82  52  35  S3      29.51
#TOUCHET 2S     N/A         84  45  26  W9      29.65
#WEST PASCO     N/A         83  52  34  W5      29.63F
$$

WAZ029-030110-
FOOTHILLS OF THE BLUES...WASHINGTON

CITY            SKY/WX      TMP DP  RH  WIND    PRES   REMARKS
WALLA WALLA AP  SUNNY       83  36  19  W16     29.73
6HR MIN TEMP:   74; 6HR MAX TEMP:   83;

#COLLEGE PLACE  N/A         85  41  21  SW7     29.70
#DAYTON SCHOOL  N/A         78  38  24  E8      29.72
#LOWDEN 2SE     N/A         83  45  26  W14     29.65
#PLEASANT VIEW 1N/A         77  44  31  SW7     29.70
#PRESCOTT       N/A         80  48  33  SW5     29.66
#SUDBURY        N/A         82  N/A N/A W9      N/A
#WHITMAN COLLEGEN/A         81  41  24  W12     29.72
#WAITSBURG 8N   N/A         77  34  21  S13     29.62S
#WALLA WALLA 5E N/A         77  50  39  SW15    N/A
#WHITMAN MISSIONN/A         82  44  26  W8      29.68
$$

WAZ030-030110-
BLUE MOUNTAINS...WASHINGTON

CITY            SKY/WX      TMP DP  RH  WIND    PRES   REMARKS
$$

ORZ009-041-WAZ024-030110-
COLUMBIA RIVER GORGE

CITY            SKY/WX      TMP DP  RH  WIND    PRES   REMARKS
HOOD RIVER AP   MOCLDY      72  48  43  W8      29.86
THE DALLES AP   SUNNY       75  47  37  NW25G38 29.81
6HR MIN TEMP:   74; 6HR MAX TEMP:   79;

#ARLINGTON AIRPON/A         74  49  41  W29     N/A
#ARLINGTON HS   N/A         76  48  37  NW7     29.63R
#MARYHILL 2W    N/A         70  49  47  N18G26  N/A
#MOSIER 1S      N/A         71  40  32  W17     29.85S
#MURDOCK        N/A         73  54  51  W25G38  29.82
#RUFUS DOT      N/A         75  49  40  W24     N/A

$$

ORZ510-030110-
NORTH CENTRAL OREGON

CITY            SKY/WX      TMP DP  RH  WIND    PRES   REMARKS
#COW CYN RST AREN/A         71  42  35  W14     N/A
#GRASS VALLEY   N/A         65  45  48  N9      N/A
#GRASS VALLEY 1SN/A         69  47  45  NW14    29.81S
#KENT DOT       N/A         71  37  29  W25     N/A
#MAUPIN SCHOOL  N/A         75  49  40  W15G25  28.69S
#MORO SCHOOL    N/A         68  54  61  W22G33  29.85
#SHANIKO 5WSW   N/A         68  37  32  W17     N/A
#TYGH VALLEY 2NEN/A         75  49  40  SW15    29.75
#WAPANITIA AIRPON/A         71  47  42  NW16G26 29.79
#WASCO DOT      N/A         70  47  44  W23G30  N/A
#WASCO AIRPORT  N/A         71  44  38  W22     N/A
#WASCO 5NE      N/A         70  48  46  N21G31  29.76
$$

ORZ511-030110-
CENTRAL OREGON

CITY            SKY/WX      TMP DP  RH  WIND    PRES   REMARKS
BEND AIRPORT    SUNNY       73  32  22  NW18G24 29.88S
MADRAS AIRPORT  SUNNY       77  37  24  N25     29.85
#BEND 6E        N/A         74  30  20  CALM    29.69R
#BEND 1SW       N/A         75  34  22  S2      N/A
#BEND-AWBREY    N/A         80  37  21  NE7     29.73S
#BEND-KIM LN    N/A         79  37  22  SW7     29.84
#CROOKED RVR RANN/A         75  45  34  W20G29  29.75R
#CULVER         N/A         76  43  31  SW12    29.81
#LAKE BILLY CHINN/A         73   5   7  W14     29.88R
#POWELL BUTTE   N/A         76  44  32  NW6     29.53S
#PRINEVILLE 3N  N/A         75  45  34  SW12G24 29.70S
#WARM SPRINGS   N/A         79  46  31  S13     29.78


ORZ509-030110-
EAST SLOPES OF OREGON CASCADES

CITY            SKY/WX      TMP DP  RH  WIND    PRES   REMARKS
#BLUE BOX PASS  N/A         54   1  11  SW2     N/A
#BLACK BUTTE RNCN/A         68  46  45  CALM    29.80S
#CAMP SHERMAN   N/A         70  45  41  NW6     29.83R
#LA PINE DOT    N/A         73  26  17  W15     N/A
#LA PINE 4NW    N/A         73  44  35  W3      29.83
#LAVA BUTTE DOT N/A         72  33  24  SW2     N/A
#SISTERS AIRPOR N/A         71  53  53  N15G25  29.89R
#SISTERS ODOT   N/A         70  N/A N/A S10G25  N/A
#SISTERS 1NW    N/A         73  43  34  W8      N/A
#SISTERS 3N     N/A         72  43  35  W5      N/A
#SUNRIVER       N/A         72  38  29  SW5     29.68S
#SUNRIVER AP    N/A         74  43  33  W2      29.75
#TUMALO 3W      N/A         73  33  23  N17     29.63
#WANOGA BUTTE D N/A         62  32  32  W8      N/A

$$

ORZ044-030110-
LOWER COLUMBIA BASIN...OREGON

CITY            SKY/WX      TMP DP  RH  WIND    PRES   REMARKS
HERMISTON       SUNNY       83  44  25  W25G32  29.69
6HR MIN TEMP:   74; 6HR MAX TEMP:   85;

#BOARDMAN SCHOOLN/A         81  48  32  W18G28  29.67
#BOARDMAN 3W    N/A         79  50  36  SW24    29.38S
#BOARDMAN 8SW   N/A         78  52  40  W20     29.69S
#IONE SCHOOL    N/A         76  45  33  SW20G33 29.75
#IRRIGON 4NW    N/A         83  50  32  S17G24  N/A
#UMATILLA SCHOOLN/A         82  59  46  W15     29.74S
#UMATILLA       N/A         83  46  27  SW15G30 29.66
$$

ORZ507-030110-
NORTHERN FOOTHILLS OF THE BLUES

CITY            SKY/WX      TMP DP  RH  WIND    PRES   REMARKS
PENDLETON AIRPT SUNNY       81  36  20  W29G37  29.73
6HR MIN TEMP:   72; 6HR MAX TEMP:   84;

#ADAMS 3WNW     N/A         80  37  21  W18G25  29.68
#ATHENA         N/A         78  39  25  SW8     29.71
#HELIX SCHOOL   N/A         79  37  22  SW16G25 29.69
#HELIX 3N       N/A         77  35  22  W22     29.74
#HOLDMAN 5SE    N/A         80  40  24  SW17G30 29.75
#HOLDMAN 6E     N/A         79  39  24  N17G25  29.50
#M-F GROVE ELEM N/A         82  34  18  W5      29.71F
#M-FREEWATER 5SEN/A         80  46  30  W8      29.73
#PDT AQUATIC CTRN/A         82  38  21  W14     29.75
#PDT SUNRIDGE   N/A         82  37  20  W15     29.73
#PENDLETON 7NW  N/A         80  48  33  W20G28  N/A
#PILOT ROCK     N/A         80  43  27  W7      29.77
#TUTUILLA       N/A         83  39  21  W15     29.63
#UMAPINE 2E     N/A         81  48  32  SW3     29.67
#WESTON SCHOOL  N/A         78  35  21  N6      29.70

$$

ORZ508-030110-
SOUTHERN FOOTHILLS OF THE BLUES

CITY            SKY/WX      TMP DP  RH  WIND    PRES   REMARKS
LEXINGTON       SUNNY       75  45  34  W30G35  29.79S
#AJAX           N/A         71  41  34  W17G26  29.78
#CONDON SCHOOL  N/A         72  45  38  W7      29.81
#CONDON 5W      N/A         70  39  32  NW14    29.83
#FOSSIL SCHOOL  N/A         75  41  29  W12     29.81
#HEPPNER EOC    N/A         75  41  29  NW8G28  29.67
#HEPPNER 4NE    N/A         70  43  38  W20G32  29.71S
#LEXINGTON 2SE  N/A         77  46  33  W18G29  29.73
#MIKKALO        N/A         73  43  34  NW24G33 29.81
#OLEX 4N        N/A         74  48  40  W25G43  29.76
#RUGGS 5NE      N/A         72  41  33  W18G25  30.01S
#RUGGS 2SW      N/A         74  41  30  NW15G24 29.76

$$

ORZ502-503-030110-
BLUE MOUNTAINS

CITY            SKY/WX      TMP DP  RH  WIND    PRES   REMARKS
#BATTLE MTN DOT N/A         70  45  41  NW2     N/A
#HEPPNER 15SE   N/A         66  39  37  NW7     29.78S
#LADD CYN SMT   N/A         76  36  23  NW16    N/A
#LADD CREEK ODOTN/A         78  45  31  NE6     N/A
#LONG CREEK HS  N/A         76  37  24  NW15    N/A
#N POWDER DOT   N/A         78  46  32  NE9     N/A
#PIKES PEAK     N/A         69  38  32  SW21G28 27.99
#TOLLGATE       N/A         64  38  38  SW7     29.84
#TROY SCHOOL    N/A         82  45  27  W7      29.48
#UKIAH          N/A         77  40  26  NW13    29.74
#WESTON 4E      N/A         74  38  27  SW10    29.65
$$

ORZ505-030110-
JOHN DAY BASIN

CITY            SKY/WX      TMP DP  RH  WIND    PRES   REMARKS
JOHN DAY        SUNNY       83  37  19  NW16    29.80S
#JOHN DAY KJDY  N/A         83  71  67  SW7     29.84
#MONUMENT HS    N/A         85  34  16  NW9     29.76
#MT. VERNON 5SE N/A         81  37  21  W7      29.77
#WINLOCK        N/A         76  37  24  CALM    29.92
$$

ORZ506-030110-
OCHOCO AND JOHN DAY HIGHLANDS

CITY            SKY/WX      TMP DP  RH  WIND    PRES   REMARKS
#BUCK CREEK DOT N/A         83  37  19  W14G24  N/A
#HORSE RIDGE DO N/A         75  32  21  NW14    N/A
#KEYES SMT DOT  N/A         72  36  27  NW14    N/A
#PAULINA SCHOOL N/A         82  28  14  NW7     29.83
#PINE MTN OBS   N/A         66  33  29  N10     N/A
#PRAIRIE CITY   N/A         82  30  15  W3      29.55
#SENECA 9NW     N/A         81  26  13  SW1     29.71
$$

ORZ049-030110-
GRANDE RONDE VALLEY

CITY            SKY/WX      TMP DP  RH  WIND    PRES   REMARKS
LA GRANDE       SUNNY       79  39  24  NW17    29.75S
#COVE           N/A         81  49  33  NW1     29.70
#COVE SCHOOL    N/A         80  46  30  NW2     29.77
#COVE 6NW       N/A         79  45  30  W13     29.71
#ELGIN 3N       N/A         76  38  25  NW9     29.50S
#ISLAND CITY 4N N/A         80  49  34  NW5     29.62
#LADD CYN DOT   N/A         77  44  31  W15     N/A
#LA GRANDE ELEM N/A         77  44  31  NW7     29.77S
#UNION 1S       N/A         81  47  30  N7      29.58R
$$

ORZ050-030110-
WALLOWA COUNTY

CITY            SKY/WX      TMP DP  RH  WIND    PRES   REMARKS
#ENTERPRISE AP  N/A         79  32  18  NW12    29.74
#ENTERPRISE HS  N/A         78  42  28  W9      29.77
#IMNAHA SCHOOL  N/A         87  32  14  CALM    29.57
#IMNAHA 10S     N/A         87  37  17  S2      29.72
#JOSEPH 3N      N/A         73  45  37  N8      29.83S
#JOSEPH 3W      N/A         74  39  28  N9      29.69S
#LOSTINE        N/A         77  47  35  NW6     29.47S
#MT HOWARD 8000 N/A         60  32  35  W7      30.05
#PROMISE 1S     N/A         72  47  41  SE13    29.79
#SHEEP RDG 7000 N/A         61  34  36  CALM    29.70
#WALLOWA SCHOOL N/A         79  47  32  W3      30.57



$$



USA.gov is the U.S. government's official web portal to all federal, state and local government web resources and services.